User: anonymous   Login
Location: Austin, TX
(30.3000°N, 97.7500°W)
Time: 00:25:28
(UTC-05:00)
Language:

Cosmos 2082 Rocket - Orbit

View from above orbital plane
View from above orbital plane
View from above satellite
View from above satellite

Ground track
Ground track

The orbit data is extracted from the following two-line orbital elements,

1 20625U 90046B   16180.16700154  .00000253  00000-0  15627-3 0  9998
2 20625  70.9978 172.1418 0016348 283.1438 148.0620 14.14602480347771
Epoch (UTC): 28 June 2016 04:00:28
Eccentricity: 0.0016348
inclination: 70.9978°
perigee height: 832 km
apogee height: 855 km
right ascension of ascending node: 172.1418°
argument of perigee: 283.1438°
revolutions per day: 14.14602480
mean anomaly at epoch: 148.0620°
orbit number at epoch: 34777

The dashed part of the orbit path shows where the satellite is in the earth's shadow,  

DLR